STARLINK-1631, 46151

Orbit data source: Space-Track

STARLINK-1631, 46151 is a payload satellite in LEO that was launched on Tue, 18 Aug 2020 UTC via an FALCON 9 launch vehicle from the Air Force Eastern Test Range (AFETR). Payload-class satellites include a variety of spacecraft equipped with specific instruments for various scientific and technological missions. These include communications satellites like Starlink; space stations such as the ISS; scientific satellites like the Hubble; Earth observation satellites from companies like Planet Labs, Umbra, and HawkEye 360; GPS; miniature CubeSats for education and research; and military/defense satellites.

Not visible in the next 10 days
Identifier
46151, 2020-057AL
Orbit
LEO
Last TLE update
2 hours ago
Origin
Manufacturer
SpaceX/Seattle
Mission
Partially operational Commercial Communications
Bus & Motor
STARLINK, Unknown motor
Mass
260 kg wet, ~248 kg dry
Launch date (UTC)
2020-08-18 (5 years ago)
Launch vehicle
FALCON 9
Launch site
Air Force Eastern Test Range (AFETR)
Object type
Payload
Rocket body
Debris
Shape & HBR
Box + 1 Pan, 8.86 m
Radar Cross Section
13.562 m², Large (>1 m²)

Expand to show TLE details & history

TLE from 2 hours ago
0 STARLINK-1631
1 46151U 20057AL  25141.91668981  .00681994  19439-3  21887-2 0  9996
2 46151  53.0382 131.8780 0012229  14.6045 252.0019 15.90309629263514
Epoch: 2025-05-21T22:00Z
TLE epoch observation values (Epoch: 2025-05-21T22:00:01.999Z)
Latitude
-53.05065°
Longitude
-173.76249°
Altitude
322.349 km
Speed
7.713 km/s
True Right ascension
02h 24m 09s
True Declination
-52° 52' 28"
Sunlit
Object was in daylight at epoch
Visualization orbit readout
Latitude
-41.51335°
Longitude
-119.75481°
Altitude
312.201 km
Speed
7.722 km/s
Apparent Right ascension
01h 27m 09s
Apparent Declination
-68° 20' 21"
Sunlit
Object is in daylight
Visualization observer readout
Local Sidereal Time
08:39:00
Azimuth
208.759° SW
Elevation
-43.131°
Doppler factor
1
Orbital elements
Apogee altitude
309.868 km
Perigee altitude
293.53 km
Semi-major axis
6,679.836 km
Eccentricity
0.00122
Inclination
53.0382°
RAAN
131.878°
Arg. of periapsis
14.6045°
True anomaly
Unknown
Mean anomaly
252.0019°
Eccentric anomaly
Unknown
Mean motion
3.97553 °/min
Orbital period
90.55 mins
BSTAR
0.0021887
Loading maneuver chart data...
Loading SW <> Apogee altitude chart data...
Loading historical data...
Loading historical data...
Loading historical data...
Loading historical data...
Loading historical data...
Loading historical data...
Loading historical data...

STARLINK-1631 Visibility

Observer location: undefined°, undefined°

STARLINK-1631 is not visible in the next 10 days
Span
Click to sort rows by Start time (UTC) header in descending order
Start Az.
Max El. time (UTC)
Max El. Az.
Max El.
End time (UTC)
End Az.
|